Regional Weather Roundup
Issued by NWS

Home | Current Version | Previous Version | Text Only | Print | Product List | Glossary Off
Versions: 1 2 3 4 5 6 7 8 9 10 11 12 13 14 15 16 17 18 19 20 21 22 23 24 25 26 27 28 29 30 31 32 33 34 35 36 37 38 39 40 41 42 43 44 45 46 47 48 49 50

000
ASUS43 KMKX 282100
RWRWI

WISCONSIN REGIONAL WEATHER ROUNDUP
NATIONAL WEATHER SERVICE MILWAUKEE/SULLIVAN WI
400 PM CDT SUN AUG 28 2016

NOTE: "FAIR" INDICATES FEW OR NO CLOUDS BELOW 12,000 FEET WITH NO
SIGNIFICANT WEATHER AND/OR OBSTRUCTIONS TO VISIBILITY.

WIZ001-002-006>008-014>016-023>028-282200-
NORTHWEST WISCONSIN

CITY           SKY/WX    TMP DP  RH WIND       PRES   REMARKS
SUPERIOR ARPT  SUNNY     71  64  78 E7        30.15S
ASHLAND        SUNNY     78  62  57 S7        30.16F HX  80
HAYWARD        MOSUNNY   77  62  59 VRB7      30.17F
SIREN          PTSUNNY   76  66  70 SE8       30.15F
CUMBERLAND     PTSUNNY   73  64  73 S7        30.17F
RICE LAKE      PTSUNNY   76  65  69 S10       30.18F
CHETEK         NOT AVBL
LADYSMITH      PTSUNNY   77  65  68 CALM      30.20F
EAU CLAIRE     NOT AVBL
MENOMONIE      MOSUNNY   80  67  65 SE8       30.15F HX  82
NEW RICHMOND   MOSUNNY   78  70  75 SE8       30.14F HX  80
OSCEOLA        PTSUNNY   78  74  87 E8        30.16F HX  80
$$

WIZ003>005-009-010-017-018-282200-
NORTH CENTRAL WISCONSIN

CITY           SKY/WX    TMP DP  RH WIND       PRES   REMARKS
MANITOWISH WTR NOT AVBL
ARBOR VITAE    MOSUNNY   77  65  66 CALM      30.21F
WOODRUFF       MOSUNNY   77  65  66 CALM      30.21F
RHINELANDER    MOSUNNY   78  60  53 S7        30.21F
EAGLE RIVER    MOSUNNY   75  56  53 W5        30.21S
LAND O LAKES   CLOUDY    75  59  58 CALM      30.22S
PHILLIPS       SUNNY     76  62  61 SW6       30.19F
TOMAHAWK       MOSUNNY   77  62  60 CALM      30.20F
MEDFORD        MOSUNNY   76  65  69 SW6       30.20F
MERRILL        SUNNY     76  63  63 W3        30.20F
$$

WIZ029-030-035-036-043>047-282200-
CENTRAL WISCONSIN

CITY           SKY/WX    TMP DP  RH WIND       PRES   REMARKS
WAUSAU         SUNNY     76  62  62 VRB3      30.18F
MOSINEE        NOT AVBL
MARSHFIELD     MOSUNNY   79  63  57 W3        30.18F HX  80
STEVENS POINT  MOSUNNY   76  62  60 CALM      30.19F
WAUPACA        SUNNY     82  64  54 CALM      30.18F HX  83
WAUTOMA        SUNNY     79  66  64 S5        30.18F HX  81
WISC RAPIDS    SUNNY     80  64  58 VRB5      30.20S HX  82
CAMP DOUGLAS   NOT AVBL
$$

WIZ011>013-019>022-031-037>040-048>050-282200-
NORTHEAST WISCONSIN

CITY           SKY/WX    TMP DP  RH WIND       PRES   REMARKS
ANTIGO         SUNNY     75  61  61 CALM      30.21F
SHAWANO        SUNNY     80  62  53 W3        30.19S HX  81
OCONTO         NOT AVBL
STURGEON BAY   SUNNY     76  62  62 NW5       30.19F
GREEN BAY      SUNNY     79  65  62 W3        30.18S HX  81
MANITOWOC      NOT AVBL
APPLETON       MOSUNNY   79  61  53 VRB5      30.17F HX  80
CLINTONVILLE   MOSUNNY   79  61  53 W3        30.18S HX  80
OSHKOSH        SUNNY     77  65  66 E5        30.18F
$$

WIZ032>034-041-042-053>061-282200-
SOUTHWEST WISCONSIN

CITY           SKY/WX    TMP DP  RH WIND       PRES   REMARKS
LA CROSSE      PTSUNNY   81  69  67 NE7       30.14F HX  84
SPARTA         CLOUDY    78  67  68 E3        30.18S HX  80
VIROQUA        MOSUNNY   79  69  71 E6        30.18F HX  81
BOSCOBEL       MOSUNNY   84  71  65 VRB5      30.14F HX  89
PRAIRIE DU CHI MOSUNNY   83  67  58 SE3       30.12F HX  86
PLATTEVILLE    MOSUNNY   84  71  66 E3        30.16F HX  89
$$

WIZ056-057-062-063-064-067-068-282200-
SOUTH CENTRAL WISCONSIN

CITY           SKY/WX    TMP DP  RH WIND       PRES   REMARKS
REEDSBURG      NOT AVBL
BARABOO/DELLS  SUNNY     76  66  69 E5        30.19F
LONE ROCK      MOSUNNY   80  71  74 VRB5      30.16F HX  84
MINERAL POINT  MOSUNNY   86  68  54 CALM      30.17F HX  89
MADISON        PTSUNNY   81  69  67 CALM      30.17F HX  84
MIDDLETON      SUNNY     81  69  66 E5        30.19F HX  85
WATERTOWN      MOSUNNY   79  68  68 E3        30.19S HX  82
MONROE         MOSUNNY   81  68  65 E6        30.18S HX  83
JANESVILLE     MOSUNNY   84  70  61 E6        30.16S HX  88
$$

WIZ051-052-058>065-066-070>072-282200-
SOUTHEAST WISCONSIN

CITY           SKY/WX    TMP DP  RH WIND       PRES   REMARKS
MILWAUKEE      MOSUNNY   76  66  71 E8        30.21R
WAUKESHA       MOSUNNY   75  66  73 E13       30.21R
MILWAUKEE/TIMM SUNNY     75  63  64 E8        30.21R
RACINE         SUNNY     75  67  76 E8        30.22S
BURLINGTON     PTSUNNY   79  68  68 E9        30.19S HX  82
KENOSHA        SUNNY     77  68  73 E10       30.20F
FOND DU LAC    SUNNY     80  66  62 N3        30.19S HX  82
SHEBOYGAN      SUNNY     76  66  71 SE9       30.20R
WEST BEND      PTSUNNY   79  64  61 SE3       30.20S HX  81
JUNEAU         SUNNY     76  65  69 CALM      30.21S
$$

LSZ147-162-282200-
LAKE SUPERIOR

STATION/POSITION TIME  TEMP    WIND        PRES    WAVE
                       AIR SEA DIR/SP/G            HT/PER
                 (UTC) (F)     (DEG/KT/KT) (MB)    (FT/S)
W MID LAKE BUOY  1950   66 68  240/  6/  8 1021.9F   1
DEVILS ISLAND    2000   65      30/  6/  7 1022.0F
PORT WING        2040   67      30/ 11/ 12 1021.3F
SAXON HARBOR     2000   69      40/  7/  8 1021.7
$$

LMZ867-665-643>646-282200-
LAKE MICHIGAN

STATION/POSITION TIME  TEMP    WIND        PRES    WAVE
                       AIR SEA DIR/SP/G            HT/PER
                 (UTC) (F)     (DEG/KT/KT) (MB)    (FT/S)
CHAMBERS ISLAND  2000   73     160/  6/  9 1021.7
N MID LAKE BUOY  1950   70 72  210/  4/  6 1021.9F   1
NORTHPORT PIER   1900   73     120/  4/  5 1022.4F
KEWAUNEE LAKESHO 2000   67     180/  6/  7 1022.0F
SHEBOYGAN LAKESH 2000   65     170/  7/  7 1022.1F
PORT WASHINGTON  2000   71     180/  5/  8 1023.4S
ATWATER BUOY     2000   68     140/  8/ 10   N/A
MILWAUKEE LAKESH 2010   67     130/  6/  7   N/A
S MID LAKE BUOY  1950   72 75   50/  6/  8 1022.2R   1
KENOSHA   LAKESH 2000   69      80/  2/  2 1022.7R
$$

TC  - TEMPERATURE IN CELSIUS
VSB - VISIBILITY IN STATUTE MILES
WCI - WIND CHILL INDEX
HX  - HEAT INDEX





USA.gov is the U.S. government's official web portal to all federal, state and local government web resources and services.